[[{"header":{"parameterUnit":"m.s-1","parameterCategory":1,"la1":30.2991,"la2":30.254,"lo1":-89.0895,"lo2":-89.0444,"dx":0.0017,"dy":0.0017,"nx":28,"ny":28,"refTime":"2022-11-28T15:00:00:Z","depth":0,"parameterNumber":2,"parameterNumberName":"U-component_of_WINDS"},"data":[0,0,0,0,0,0,0,0,0,0,0,0,0,0,0,0,0,0,0,0,0,0,0,0,0,0,0,0,0,0,0,0,0,0,0,0,0,0,0,0,0,0,0,0,0,0,0,0,0,0,0,0,0,0,0,0,0,0,2.1104,2.1106,0,2.1231,2.1232,2.1234,2.1225,2.1223,2.1221,2.1219,2.1353,2.1358,2.1363,0,0,0,0,0,0,0,0,0,0,0,0,0,2.086,2.0864,2.1104,2.1106,2.1107,2.123,2.1232,2.1234,2.1225,2.1223,2.1221,2.1218,2.1351,2.1357,2.1364,0,0,0,0,0,0,0,0,0,0,0,0,0,2.0974,2.0866,2.1104,2.1118,2.112,2.123,2.1232,2.1234,2.1226,2.1223,2.122,2.1217,2.1349,2.1357,2.1365,2.147,0,0,2.1389,2.1392,0,0,0,0,0,0,0,0,2.0968,2.0983,2.1114,2.1117,2.112,2.1209,2.1195,2.1314,2.1226,2.1186,2.1219,2.1216,2.1308,2.1319,2.1349,2.1477,2.1482,2.139,2.1395,2.1398,2.14,0,0,0,0,0,0,0,2.096,2.0978,2.1154,2.1116,2.112,2.1119,2.1132,2.1217,2.1261,2.1189,2.1189,2.1204,2.1309,2.1341,2.1352,2.1484,2.1389,2.1397,2.1401,2.1405,2.1706,2.1709,0,0,0,0,0,0,2.0948,2.0971,2.115,2.1158,2.1035,2.1126,2.114,2.1183,2.126,2.1269,2.1206,2.1203,2.1329,2.1343,2.1357,2.1485,2.1398,2.1405,2.141,2.1703,2.1707,2.171,0,0,0,0,0,0,2.0943,2.0964,2.1145,2.1065,2.1088,2.1133,2.1181,2.1187,2.122,2.1273,2.1281,2.1231,2.1327,2.1345,2.1442,2.149,2.1409,2.1416,2.1699,2.1704,2.1709,2.1744,0,0,0,0,0,0,2.0936,2.0962,2.1002,2.1065,2.1092,2.1227,2.1184,2.1192,2.1233,2.123,2.1298,2.1307,2.1326,2.143,2.145,2.1499,2.1422,2.1695,2.1701,2.1707,2.1739,2.1749,2.1759,0,0,0,0,0,2.0927,2.1007,2.1004,2.1025,2.1142,2.123,2.1245,2.1265,2.1237,2.1278,2.1312,2.1305,2.1482,2.144,2.1462,2.1515,2.1692,2.17,2.1707,2.1734,2.1747,2.1758,0,0,0,0,0,0,2.0949,2.1016,2.1013,2.1116,2.1167,2.1228,2.128,2.1278,2.1339,2.1334,2.1358,2.1373,2.147,2.1503,2.1455,2.1622,2.1583,2.1596,2.1597,2.161,2.1619,2.1609,2.1429,0,0,0,0,0,2.0966,2.103,2.1086,2.1172,2.1197,2.1234,2.1274,2.1284,2.1339,2.1361,2.1402,2.1457,2.1525,2.1569,2.1635,2.1744,2.1759,2.1791,2.1801,2.1809,2.1819,2.188,2.1895,2.1734,2.1734,2.1734,0,0,2.1001,2.1046,2.1085,2.1177,2.1218,2.1286,2.1253,2.1326,2.1376,2.1373,2.1466,2.1498,2.1561,2.1664,2.1712,2.1694,2.1867,2.1818,2.1824,2.183,2.1889,2.1904,2.1917,2.1739,2.1738,2.1738,0,0,2.11,2.114,2.1216,2.1258,2.132,2.1344,2.1362,2.1424,2.1445,2.1539,2.1538,2.16,2.1716,2.1761,2.1799,2.1916,2.1912,2.1937,2.1989,2.2048,2.206,2.2071,2.2113,2.2128,2.1947,2.1947,2.1947,0,2.1137,2.1237,2.1255,2.1329,2.1369,2.1368,2.1446,2.1486,2.1567,2.1596,2.1575,2.1721,2.1764,2.1878,2.1906,2.1937,2.196,2.1929,2.2057,2.2068,2.2079,2.2119,2.2135,2.195,2.1949,2.1949,2.1949,0,2.1279,2.1349,2.1403,2.1479,2.1527,2.1602,2.1633,2.1679,2.1686,2.1713,2.181,2.186,2.1936,2.1964,2.1972,2.208,2.2067,2.2051,2.2013,2.2097,2.2135,2.215,2.1953,2.1952,2.1952,2.1951,0,0,2.1394,2.148,2.15,2.1535,2.1604,2.1659,2.1735,2.1808,2.1847,2.1904,2.1969,2.2068,2.2054,2.2097,2.211,2.2162,2.2252,2.214,2.2142,2.2159,2.2374,2.2385,2.2403,2.225,2.2253,2.2256,2.2369,0,2.1499,2.1632,2.1651,2.1769,2.1834,2.1835,2.1901,2.1952,2.1979,2.204,2.2072,2.2141,2.2117,2.2143,2.2195,2.223,2.2295,2.2222,2.2312,2.2315,2.2295,2.2423,2.2434,2.2539,2.2384,2.2387,2.2388,0,2.164,2.1699,2.1822,2.1883,2.1911,2.197,2.2039,2.2097,2.2155,2.2172,2.222,2.2228,2.2308,2.2267,2.2379,2.2329,2.2367,2.239,2.2395,2.2403,2.2356,2.2434,2.2572,2.2588,2.2412,2.241,2.2409,0,2.1711,2.1822,2.191,2.194,2.2013,2.2055,2.2088,2.2143,2.2186,2.2247,2.2275,2.2345,2.2384,2.2438,2.2465,2.2433,2.2576,2.2537,2.2593,2.2592,2.2622,2.2619,2.2767,2.2647,2.2647,2.2647,2.2646,0,2.1826,2.1902,2.1943,2.1997,2.2083,2.2105,2.219,2.2221,2.2271,2.2332,2.2338,2.2396,2.2428,2.2492,2.2514,2.2603,2.2621,2.2637,2.2642,2.2636,2.2634,2.2661,2.2654,2.2651,2.265,2.2649,2.2649,0,2.192,2.195,2.2047,2.2108,2.2125,2.2185,2.2239,2.2292,2.232,2.2398,2.2418,2.2462,2.2537,2.2569,2.2662,2.2677,2.2779,2.2779,2.2759,2.276,2.2814,2.2809,2.2984,2.3009,2.2873,2.2874,2.2875,0,2.1991,2.2049,2.2117,2.2157,2.2191,2.2257,2.2301,2.2326,2.2372,2.2443,2.2488,2.2563,2.2624,2.2744,2.2785,2.2857,2.2858,2.2915,2.2869,2.2861,2.2859,2.2854,2.2861,2.2923,2.2924,2.2925,2.2926,0,2.2114,2.2127,2.2188,2.2256,2.2307,2.2362,2.2416,2.2449,2.2483,2.2535,2.261,2.2658,2.2752,2.2827,2.2901,2.2936,2.2938,2.294,2.2957,2.2951,2.2937,2.2945,2.2781,2.2936,2.2935,2.2934,2.2934,2.2933,2.2199,2.2251,2.2306,2.2375,2.2418,2.2468,2.2521,2.2555,2.2618,2.2696,2.2708,2.2789,2.2847,2.2946,2.2985,2.305,2.3036,2.306,2.3067,2.3072,2.3075,2.2927,2.3064,2.3064,2.3064,2.3063,2.3063,0,2.2322,2.2358,2.2421,2.2495,2.255,2.2545,2.2604,2.2651,2.2722,2.2775,2.2835,2.2923,2.2995,2.3043,2.3116,2.316,2.3162,2.3178,2.3175,2.3183,2.3083,2.3061,2.3175,2.3175,2.3175,2.3175,2.3175,2.3175,2.2392,2.2479,2.2499,2.2608,2.2644,2.2722,2.2756,2.2803,2.2846,2.2943,2.3003,2.3033,2.3084,2.3162,2.3229,2.3241,2.3268,2.3285,2.3296,2.3202,2.319,2.3179,2.3158,2.329,2.3291,2.339,2.3391,2.3392]},{"header":{"parameterUnit":"m.s-1","parameterCategory":1,"la1":30.2991,"la2":30.254,"lo1":-89.0895,"lo2":-89.0444,"dx":0.0017,"dy":0.0017,"nx":28,"ny":28,"refTime":"2022-11-28T15:00:00:Z","depth":0,"parameterNumber":3,"parameterNumberName":"V-component_of_WINDS"},"data":[0,0,0,0,0,0,0,0,0,0,0,0,0,0,0,0,0,0,0,0,0,0,0,0,0,0,0,0,0,0,0,0,0,0,0,0,0,0,0,0,0,0,0,0,0,0,0,0,0,0,0,0,0,0,0,0,0,0,-0.0838,-0.0838,0,-0.0832,-0.0832,-0.0832,-0.0859,-0.086,-0.0861,-0.0861,-0.0852,-0.0851,-0.085,0,0,0,0,0,0,0,0,0,0,0,0,0,-0.0869,-0.0868,-0.0838,-0.0838,-0.0838,-0.0832,-0.0832,-0.0832,-0.0859,-0.086,-0.0861,-0.0862,-0.0853,-0.0852,-0.085,0,0,0,0,0,0,0,0,0,0,0,0,0,-0.0859,-0.0868,-0.0838,-0.0851,-0.0852,-0.0832,-0.0832,-0.0832,-0.0859,-0.086,-0.0861,-0.0862,-0.0853,-0.0852,-0.085,-0.0818,0,0,-0.0846,-0.0845,0,0,0,0,0,0,0,0,-0.0859,-0.0857,-0.0849,-0.085,-0.0851,-0.0848,-0.084,-0.0827,-0.0858,-0.0856,-0.0861,-0.0863,-0.085,-0.0849,-0.0845,-0.0817,-0.0817,-0.0846,-0.0845,-0.0844,-0.0844,0,0,0,0,0,0,0,-0.086,-0.0858,-0.0836,-0.0849,-0.085,-0.0856,-0.0855,-0.0838,-0.0846,-0.0856,-0.0858,-0.0857,-0.085,-0.0846,-0.0845,-0.0817,-0.0846,-0.0844,-0.0844,-0.0843,-0.0762,-0.076,0,0,0,0,0,0,-0.0859,-0.0858,-0.0836,-0.0836,-0.0858,-0.0854,-0.0854,-0.0847,-0.0846,-0.0847,-0.0856,-0.0859,-0.0848,-0.0846,-0.0845,-0.0806,-0.0844,-0.0843,-0.0842,-0.0763,-0.0761,-0.076,0,0,0,0,0,0,-0.086,-0.0857,-0.0836,-0.0847,-0.0845,-0.0852,-0.0845,-0.0847,-0.0843,-0.0847,-0.0848,-0.0851,-0.0849,-0.0847,-0.0824,-0.0806,-0.0842,-0.0841,-0.0764,-0.0762,-0.0761,-0.0729,0,0,0,0,0,0,-0.0861,-0.0857,-0.0845,-0.0847,-0.0845,-0.0817,-0.0844,-0.0846,-0.084,-0.0843,-0.0841,-0.0842,-0.085,-0.0826,-0.0823,-0.0805,-0.084,-0.0766,-0.0764,-0.0761,-0.0731,-0.0726,-0.0721,0,0,0,0,0,-0.0862,-0.0836,-0.0845,-0.0842,-0.083,-0.0816,-0.0814,-0.0824,-0.0839,-0.0827,-0.0829,-0.0842,-0.0809,-0.0824,-0.082,-0.0801,-0.0767,-0.0764,-0.0761,-0.0734,-0.0727,-0.0721,0,0,0,0,0,0,-0.0831,-0.0837,-0.0846,-0.0821,-0.0818,-0.082,-0.0805,-0.0817,-0.0808,-0.0811,-0.0823,-0.0822,-0.0798,-0.0797,-0.0814,-0.0769,-0.079,-0.0787,-0.077,-0.0764,-0.0759,-0.0759,-0.0838,0,0,0,0,0,-0.0822,-0.081,-0.0815,-0.0792,-0.079,-0.0798,-0.0792,-0.08,-0.0797,-0.0795,-0.0796,-0.0792,-0.078,-0.0772,-0.0762,-0.0732,-0.0731,-0.0717,-0.0712,-0.0708,-0.0704,-0.0687,-0.068,-0.075,-0.075,-0.075,0,0,-0.0801,-0.0803,-0.0795,-0.0786,-0.0785,-0.0771,-0.0797,-0.0782,-0.0772,-0.0793,-0.0772,-0.0772,-0.0768,-0.0741,-0.073,-0.074,-0.0684,-0.0704,-0.07,-0.0699,-0.0683,-0.0677,-0.0671,-0.0748,-0.0749,-0.0749,0,0,-0.0758,-0.0758,-0.0739,-0.0737,-0.0735,-0.0741,-0.0736,-0.0737,-0.0738,-0.0718,-0.0733,-0.0721,-0.0701,-0.0697,-0.0693,-0.0648,-0.0659,-0.0644,-0.0617,-0.0601,-0.0595,-0.059,-0.0573,-0.0567,-0.0641,-0.0641,-0.0641,0,-0.0733,-0.0715,-0.0727,-0.0712,-0.0707,-0.0726,-0.0706,-0.0703,-0.0697,-0.0693,-0.0706,-0.0681,-0.0679,-0.0652,-0.0641,-0.0637,-0.0631,-0.0644,-0.0595,-0.059,-0.0586,-0.057,-0.0564,-0.0639,-0.0639,-0.0639,-0.0639,0,-0.0683,-0.0671,-0.0655,-0.065,-0.0644,-0.0626,-0.0634,-0.0626,-0.0635,-0.0639,-0.0617,-0.0616,-0.0606,-0.06,-0.0608,-0.0573,-0.058,-0.0593,-0.0615,-0.0577,-0.0562,-0.0556,-0.0636,-0.0637,-0.0637,-0.0638,0,0,-0.062,-0.0623,-0.0616,-0.0614,-0.0613,-0.0603,-0.0586,-0.0577,-0.0569,-0.0564,-0.0549,-0.0532,-0.0545,-0.054,-0.0547,-0.0533,-0.0496,-0.0548,-0.0548,-0.0538,-0.0457,-0.0446,-0.0439,-0.0505,-0.0503,-0.0503,-0.0457,0,-0.0577,-0.0548,-0.0559,-0.0529,-0.0517,-0.0535,-0.052,-0.0517,-0.052,-0.0509,-0.0513,-0.05,-0.0518,-0.0515,-0.0502,-0.0504,-0.048,-0.0507,-0.0489,-0.0489,-0.0489,-0.0432,-0.042,-0.0378,-0.0452,-0.0451,-0.045,0,-0.0522,-0.0517,-0.0486,-0.0487,-0.0482,-0.0468,-0.0461,-0.0451,-0.0447,-0.0451,-0.0445,-0.0456,-0.0438,-0.046,-0.0434,-0.0452,-0.0446,-0.0446,-0.0444,-0.0442,-0.0466,-0.0427,-0.0364,-0.0357,-0.0441,-0.0442,-0.0443,0,-0.0478,-0.0462,-0.0442,-0.044,-0.0441,-0.043,-0.043,-0.0428,-0.0422,-0.0415,-0.0411,-0.0401,-0.0396,-0.0388,-0.0395,-0.0411,-0.0369,-0.0391,-0.037,-0.0369,-0.0359,-0.0359,-0.0293,-0.0356,-0.0356,-0.0357,-0.0357,0,-0.0428,-0.0408,-0.0422,-0.0409,-0.0387,-0.04,-0.0377,-0.0379,-0.0377,-0.0364,-0.0379,-0.0367,-0.0378,-0.0366,-0.0372,-0.0349,-0.0347,-0.0348,-0.0349,-0.0346,-0.0346,-0.0341,-0.0344,-0.0355,-0.0355,-0.0356,-0.0356,0,-0.0375,-0.0383,-0.0362,-0.0365,-0.0365,-0.0349,-0.0351,-0.0339,-0.0343,-0.0326,-0.0323,-0.0329,-0.0316,-0.0323,-0.0309,-0.0313,-0.0284,-0.029,-0.0285,-0.0286,-0.0264,-0.0265,-0.0192,-0.0182,-0.0252,-0.0251,-0.0251,0,-0.0342,-0.0327,-0.0329,-0.0322,-0.0321,-0.0309,-0.0303,-0.0315,-0.0307,-0.0303,-0.0291,-0.0279,-0.027,-0.0248,-0.0251,-0.024,-0.0245,-0.022,-0.0243,-0.024,-0.0243,-0.0244,-0.0242,-0.0215,-0.0214,-0.0213,-0.0213,0,-0.0283,-0.0288,-0.0279,-0.0271,-0.0264,-0.0258,-0.0254,-0.0247,-0.0258,-0.0249,-0.0236,-0.0229,-0.0215,-0.0203,-0.0194,-0.0192,-0.0204,-0.0206,-0.02,-0.0196,-0.0193,-0.0193,-0.0271,-0.0207,-0.0207,-0.0208,-0.0208,-0.0208,-0.0238,-0.0226,-0.0225,-0.0214,-0.0212,-0.0208,-0.0196,-0.02,-0.0189,-0.018,-0.0187,-0.0171,-0.0168,-0.0157,-0.0154,-0.0141,-0.0151,-0.0143,-0.0141,-0.0138,-0.0135,-0.0196,-0.014,-0.014,-0.014,-0.014,-0.014,0,-0.0179,-0.018,-0.017,-0.0163,-0.0155,-0.0168,-0.0163,-0.0155,-0.0141,-0.0138,-0.0129,-0.0114,-0.0102,-0.0104,-0.0093,-0.0082,-0.0087,-0.0079,-0.0079,-0.0079,-0.0127,-0.0133,-0.0075,-0.0075,-0.0075,-0.0075,-0.0075,-0.0075,-0.0147,-0.0127,-0.0131,-0.011,-0.011,-0.0096,-0.0092,-0.0087,-0.0085,-0.0067,-0.0058,-0.006,-0.0058,-0.0047,-0.0037,-0.0037,-0.0032,-0.0021,-0.0024,-0.0069,-0.0075,-0.0081,-0.0087,-0.002,-0.002,0.0023,0.0024,0.0024]}]]